Regional Weather Roundup
Issued by NWS

Home | Current Version | Previous Version | Text Only | Print | Product List | Glossary On
Versions: 1 2 3 4 5 6 7 8 9 10 11 12 13 14 15 16 17 18 19 20 21 22 23 24 25 26 27 28 29 30 31 32 33 34 35 36 37 38 39 40 41 42 43 44 45 46 47 48 49 50
000
ASUS43 KLSX 221710
RWRMO

WEATHER SUMMARY FOR MISSOURI
NATIONAL WEATHER SERVICE SPRINGFIELD MO
1100 AM CST SUN JAN 22 2017

NOTE: "FAIR" INDICATES FEW OR NO CLOUDS BELOW 12,000 FEET WITH NO
       SIGNIFICANT WEATHER AND/OR OBSTRUCTIONS TO VISIBILITY.
       CURRENT SKY AND/OR WEATHER CONDITIONS ARE NOT AVAILABLE FOR
       CHILLICOTHE AND FARMINGTON.

MOZ001>031-035>038-043-044-053-054-221800-
...NORTHERN AND WESTERN MISSOURI...

CITY           SKY/WX    TMP DP  RH WIND       PRES   REMARKS
KANSAS CTY INT PTSUNNY   40  33  76 NW12      29.71R
KANSAS C DTWN  CLOUDY    44  38  79 N8        29.71R
LEE`S SUMMIT   CLOUDY    44  41  89 N12       29.69R
ST JOSEPH      CLOUDY    33  32  96 N15       29.77R WCI  23
CHILLICOTHE      N/A     34  33  96 N12       29.74R WCI  25
KIRKSVILLE     MIX PCPN  37  36  96 N14       29.69R VSB 3/4 WCI  28

$$
MOZ066>068-077>081-088>096-101>105-221800-
...SOUTHWEST MISSOURI...

CITY           SKY/WX    TMP DP  RH WIND       PRES   REMARKS
SPRINGFIELD    LGT RAIN  49  46  90 N13       29.52R
JOPLIN         RAIN      46  45  96 N16G29    29.58R FOG
BRANSON        LGT RAIN  50  50 100 N14       29.46R VSB 1

$$
MOZ032>034-039>042-045>050-055>058-069>072-221800-
...CENTRAL MISSOURI...

CITY           SKY/WX    TMP DP  RH WIND       PRES   REMARKS
COLUMBIA       CLOUDY    46  40  79 N21       29.59S
JEFFERSON CITY CLOUDY    48  39  71 N15G22    29.58S
ROLLA          CLOUDY    45  45 100 N15       29.51S FOG
SEDALIA        CLOUDY    46  43  89 N12       29.65R
WHITEMAN AFB   LGT RAIN  44  44 100 N10       29.64R FOG
WARRENSBURG    RAIN      43  43 100 NW10      29.65S
OSAGE BEACH    RAIN      46  43  89 VRB3      29.57R

$$
MOZ051-052-059>065-221800-
...EAST CENTRAL MISSOURI...

CITY           SKY/WX    TMP DP  RH WIND       PRES   REMARKS
ST LOUIS INTL  CLOUDY    50  44  80 N12       29.53F
SPIRIT OF STL  CLOUDY    49  44  83 N8        29.53F HAZE
ST CHARLES     CLOUDY    48  45  89 N9        29.54S

$$
MOZ072>076-082>087-097>100-106>115-221800-
...SOUTH CENTRAL AND SOUTHEAST MISSOURI...

CITY           SKY/WX    TMP DP  RH WIND       PRES   REMARKS
CAPE GIRARDEAU CLOUDY    59  50  72 E8        29.44F
FARMINGTON     PTSUNNY   53  50  89 N9        29.48F
POPLAR BLUFF   CLOUDY    56  53  90 N7        29.42F
WEST PLAINS    CLOUDY    53  51  93 N10G18    29.45S

$$



USA.gov is the U.S. government's official web portal to all federal, state and local government web resources and services.